RYR74WC EIDW-GCLP

Flight info

Callsign RYR74WC
Flight time 3h 57m
Altitude 35000
Route BEPAN2J BEPAN DCT BANBA DCT PAVLO DCT AMPOP DCT SOSOV DCT DEMOS DCT BEXAL DCT SAMAR
Aircraft B738/M-SDE3FGILRWY/SB1

Departure

Time 2026-05-04 16:51
Airport Dublin Airport (EIDW)

Arrival

Time 2026-05-04 20:48
Airport Gran Canaria Airport (GCLP)
Time Latitude Longitude Altitude Speed Heading
2026-05-04 15:57 53.43089 -6.24634 210 ft 0 kts 185°
2026-05-04 16:16 53.43091 -6.24633 210 ft 3 kts 185°
2026-05-04 16:17 53.43137 -6.24626 210 ft 3 kts 183°
2026-05-04 16:18 53.43184 -6.24690 210 ft 3 kts 93°
2026-05-04 16:18 53.43184 -6.24730 210 ft 3 kts 87°
2026-05-04 16:19 53.43185 -6.24798 210 ft 0 kts 95°
2026-05-04 16:35 53.43185 -6.24794 216 ft 1 kts 95°
2026-05-04 16:36 53.43184 -6.24766 210 ft 3 kts 95°
2026-05-04 16:36 53.43194 -6.24642 213 ft 7 kts 84°
2026-05-04 16:37 53.43200 -6.24440 210 ft 9 kts 52°
2026-05-04 16:37 53.43260 -6.24409 210 ft 9 kts
2026-05-04 16:37 53.43348 -6.24497 210 ft 9 kts 277°
2026-05-04 16:38 53.43359 -6.24692 219 ft 8 kts 276°
2026-05-04 16:39 53.43375 -6.24977 214 ft 10 kts 275°
2026-05-04 16:39 53.43392 -6.25288 216 ft 16 kts 276°
2026-05-04 16:40 53.43411 -6.25644 210 ft 15 kts 268°
2026-05-04 16:40 53.43320 -6.25912 213 ft 13 kts 181°
2026-05-04 16:41 53.43131 -6.25786 210 ft 17 kts 156°
2026-05-04 16:41 53.42784 -6.25536 218 ft 21 kts 156°
2026-05-04 16:42 53.42397 -6.25244 211 ft 13 kts 152°
2026-05-04 16:43 53.42231 -6.25143 213 ft 13 kts 187°
2026-05-04 16:43 53.42218 -6.25415 212 ft 12 kts 275°
2026-05-04 16:43 53.42226 -6.25554 214 ft 12 kts 275°
2026-05-04 16:44 53.42262 -6.26208 210 ft 16 kts 275°
2026-05-04 16:45 53.42286 -6.26657 210 ft 20 kts 275°
2026-05-04 16:46 53.42322 -6.27312 218 ft 18 kts 275°
2026-05-04 16:46 53.42344 -6.27710 210 ft 17 kts 275°
2026-05-04 16:47 53.42365 -6.28102 218 ft 19 kts 276°
2026-05-04 16:47 53.42392 -6.28586 210 ft 23 kts 276°
2026-05-04 16:48 53.42394 -6.29031 210 ft 0 kts 229°
2026-05-04 16:49 53.42375 -6.29060 216 ft 10 kts 213°
2026-05-04 16:49 53.42240 -6.28964 211 ft 0 kts 92°
2026-05-04 16:50 53.42164 -6.27573 208 ft 137 kts 95°
2026-05-04 16:51 53.41948 -6.23276 847 ft 219 kts 93°
2026-05-04 16:51 53.41868 -6.20575 1388 ft 244 kts 93°
2026-05-04 16:51 53.41538 -6.14791 3291 ft 244 kts 97°
2026-05-04 16:52 53.41159 -6.09088 4614 ft 263 kts 96°
2026-05-04 16:52 53.40976 -6.05981 5275 ft 271 kts 95°
2026-05-04 16:53 53.39294 -6.00538 6800 ft 276 kts 148°
2026-05-04 16:53 53.33628 -6.00149 8657 ft 286 kts 191°
2026-05-04 16:54 53.31667 -6.00792 8737 ft 289 kts 191°
2026-05-04 16:55 53.23889 -6.04154 10044 ft 293 kts 198°
2026-05-04 16:55 53.19762 -6.06289 10542 ft 334 kts 195°
2026-05-04 16:56 53.15044 -6.07311 11707 ft 347 kts 184°
2026-05-04 16:56 53.07859 -6.09496 13722 ft 357 kts 200°
2026-05-04 16:57 53.05535 -6.11001 14365 ft 361 kts 201°
2026-05-04 16:57 53.00833 -6.13990 15607 ft 367 kts 200°
2026-05-04 16:58 52.93465 -6.18067 17355 ft 377 kts 190°
2026-05-04 16:58 52.90853 -6.18666 17921 ft 381 kts 186°
2026-05-04 16:59 52.85539 -6.19614 19001 ft 387 kts 186°
2026-05-04 17:00 52.74718 -6.21758 21042 ft 399 kts 187°
2026-05-04 17:00 52.66368 -6.23512 22416 ft 408 kts 187°
2026-05-04 17:01 52.60703 -6.24699 23297 ft 413 kts 187°
2026-05-04 17:01 52.55007 -6.25888 24106 ft 418 kts 187°
2026-05-04 17:02 52.49175 -6.26589 24883 ft 423 kts 179°
2026-05-04 17:02 52.43252 -6.26201 25634 ft 428 kts 177°
2026-05-04 17:03 52.40273 -6.25965 25983 ft 430 kts 177°
2026-05-04 17:03 52.37270 -6.25761 26326 ft 433 kts 178°
2026-05-04 17:03 52.31265 -6.25442 26986 ft 437 kts 178°
2026-05-04 17:04 52.25148 -6.25175 27617 ft 442 kts 178°
2026-05-04 17:04 52.18972 -6.24916 28216 ft 446 kts 178°
2026-05-04 17:05 52.12744 -6.24651 28784 ft 450 kts 178°
2026-05-04 17:05 52.06502 -6.24384 29326 ft 454 kts 178°
2026-05-04 17:06 52.00179 -6.24114 29947 ft 454 kts 178°
2026-05-04 17:06 51.97026 -6.23979 30345 ft 452 kts 178°
2026-05-04 17:07 51.90816 -6.22624 31004 ft 451 kts 168°
2026-05-04 17:07 51.88789 -6.21902 31203 ft 451 kts 167°
2026-05-04 17:07 51.84741 -6.20418 31615 ft 450 kts 167°
2026-05-04 17:07 51.81687 -6.19306 31934 ft 449 kts 167°
2026-05-04 17:08 51.78642 -6.18219 32234 ft 448 kts 167°
2026-05-04 17:08 51.72544 -6.16099 32798 ft 448 kts 168°
2026-05-04 17:08 51.69498 -6.15057 33082 ft 447 kts 168°
2026-05-04 17:09 51.66459 -6.14022 33353 ft 446 kts 168°
2026-05-04 17:09 51.63424 -6.12991 33609 ft 446 kts 168°
2026-05-04 17:09 51.60386 -6.11960 33866 ft 445 kts 168°
2026-05-04 17:10 51.54370 -6.09922 34357 ft 444 kts 168°
2026-05-04 17:10 51.45276 -6.06847 34736 ft 448 kts 168°
2026-05-04 17:11 51.39174 -6.04791 34745 ft 447 kts 168°
2026-05-04 17:12 51.30135 -6.01756 34749 ft 441 kts 168°
2026-05-04 17:13 51.15201 -5.96767 34749 ft 439 kts 168°
2026-05-04 17:14 51.03189 -5.92778 34752 ft 445 kts 168°
2026-05-04 17:15 50.94027 -5.89948 34742 ft 452 kts 175°
2026-05-04 17:15 50.87748 -5.90432 34747 ft 455 kts 187°
2026-05-04 17:16 50.81503 -5.91699 34748 ft 453 kts 187°
2026-05-04 17:17 50.69165 -5.94089 34750 ft 445 kts 187°
2026-05-04 17:18 50.56835 -5.96364 34749 ft 447 kts 186°
2026-05-04 17:19 50.44506 -5.98628 34748 ft 448 kts 186°
2026-05-04 17:20 50.32138 -6.00888 34749 ft 449 kts 186°
2026-05-04 17:20 50.22819 -6.02583 34747 ft 450 kts 186°
2026-05-04 17:21 50.10388 -6.04834 34750 ft 449 kts 186°
2026-05-04 17:22 50.04218 -6.05947 34746 ft 449 kts 186°
2026-05-04 17:23 49.91816 -6.08176 34748 ft 448 kts 186°
2026-05-04 17:24 49.82572 -6.09829 34747 ft 448 kts 186°
2026-05-04 17:25 49.70202 -6.12032 34747 ft 447 kts 186°
2026-05-04 17:26 49.57888 -6.14214 34750 ft 447 kts 186°
2026-05-04 17:27 49.42728 -6.19190 34746 ft 447 kts 196°
2026-05-04 17:28 49.30745 -6.24311 34747 ft 447 kts 195°
2026-05-04 17:29 49.12747 -6.31727 34747 ft 448 kts 195°
2026-05-04 17:31 48.97734 -6.37867 34748 ft 448 kts 195°
2026-05-04 17:32 48.82669 -6.43990 34747 ft 448 kts 195°
2026-05-04 17:33 48.70668 -6.48841 34747 ft 448 kts 195°
2026-05-04 17:34 48.58633 -6.53682 34747 ft 447 kts 195°
2026-05-04 17:35 48.43637 -6.59680 34746 ft 447 kts 195°
2026-05-04 17:36 48.37627 -6.62074 34748 ft 447 kts 195°
2026-05-04 17:36 48.31615 -6.64463 34748 ft 447 kts 195°
2026-05-04 17:37 48.25605 -6.66845 34747 ft 447 kts 195°
2026-05-04 17:37 48.19631 -6.69207 34749 ft 447 kts 195°
2026-05-04 17:38 48.13621 -6.71577 34747 ft 447 kts 194°
2026-05-04 17:38 48.07608 -6.73943 34749 ft 447 kts 194°
2026-05-04 17:39 47.98624 -6.77468 34749 ft 447 kts 194°
2026-05-04 17:39 47.92611 -6.79820 34749 ft 447 kts 194°
2026-05-04 17:40 47.86590 -6.82169 34747 ft 447 kts 194°
2026-05-04 17:40 47.80573 -6.84511 34748 ft 447 kts 194°
2026-05-04 17:41 47.74558 -6.86846 34747 ft 447 kts 194°
2026-05-04 17:41 47.68580 -6.89162 34747 ft 447 kts 194°
2026-05-04 17:42 47.62557 -6.91490 34747 ft 447 kts 194°
2026-05-04 17:42 47.56535 -6.93812 34747 ft 447 kts 194°
2026-05-04 17:43 47.50516 -6.96127 34747 ft 447 kts 194°
2026-05-04 17:43 47.44536 -6.98421 34749 ft 447 kts 194°
2026-05-04 17:44 47.38515 -7.00726 34749 ft 447 kts 194°
2026-05-04 17:44 47.32494 -7.03026 34747 ft 447 kts 194°
2026-05-04 17:45 47.26471 -7.05321 34748 ft 447 kts 194°
2026-05-04 17:45 47.20494 -7.07593 34747 ft 447 kts 194°
2026-05-04 17:46 47.14475 -7.09875 34747 ft 447 kts 194°
2026-05-04 17:46 47.08455 -7.12153 34747 ft 447 kts 194°
2026-05-04 17:47 47.02436 -7.14425 34748 ft 447 kts 194°
2026-05-04 17:47 46.96454 -7.16678 34748 ft 447 kts 194°
2026-05-04 17:48 46.90436 -7.18939 34747 ft 447 kts 194°
2026-05-04 17:48 46.84420 -7.21194 34748 ft 446 kts 194°
2026-05-04 17:49 46.78402 -7.23445 34748 ft 446 kts 194°
2026-05-04 17:49 46.72383 -7.25690 34747 ft 446 kts 194°
2026-05-04 17:50 46.66401 -7.27917 34747 ft 446 kts 194°
2026-05-04 17:50 46.60382 -7.30153 34750 ft 446 kts 194°
2026-05-04 17:51 46.54365 -7.32382 34747 ft 446 kts 194°
2026-05-04 17:51 46.48386 -7.34593 34749 ft 446 kts 194°
2026-05-04 17:52 46.42363 -7.36815 34748 ft 446 kts 194°
2026-05-04 17:52 46.36346 -7.39029 34747 ft 446 kts 194°
2026-05-04 17:53 46.30322 -7.41241 34749 ft 446 kts 194°
2026-05-04 17:53 46.24303 -7.43447 34748 ft 446 kts 194°
2026-05-04 17:54 46.18323 -7.45632 34747 ft 446 kts 194°
2026-05-04 17:54 46.12302 -7.47829 34748 ft 446 kts 194°
2026-05-04 17:55 46.06287 -7.50017 34749 ft 446 kts 194°
2026-05-04 17:55 46.00258 -7.52206 34751 ft 446 kts 194°
2026-05-04 17:56 45.94276 -7.54373 34748 ft 446 kts 194°
2026-05-04 17:56 45.88257 -7.56549 34748 ft 446 kts 194°
2026-05-04 17:57 45.82235 -7.58721 34747 ft 446 kts 194°
2026-05-04 17:57 45.76212 -7.60888 34748 ft 446 kts 194°
2026-05-04 17:58 45.70231 -7.63036 34748 ft 446 kts 194°
2026-05-04 17:58 45.64206 -7.65194 34749 ft 446 kts 194°
2026-05-04 17:59 45.58187 -7.67346 34749 ft 446 kts 194°
2026-05-04 18:00 45.49156 -7.70566 34749 ft 446 kts 194°
2026-05-04 18:00 45.43174 -7.72692 34747 ft 446 kts 194°
2026-05-04 18:01 45.37154 -7.74828 34749 ft 446 kts 194°
2026-05-04 18:01 45.31133 -7.76959 34749 ft 446 kts 194°
2026-05-04 18:02 45.22138 -7.80134 34747 ft 446 kts 194°
2026-05-04 18:02 45.16121 -7.82253 34749 ft 446 kts 194°
2026-05-04 18:03 45.10097 -7.84369 34747 ft 446 kts 194°
2026-05-04 18:03 45.04079 -7.86480 34749 ft 446 kts 194°
2026-05-04 18:04 44.98056 -7.88602 34747 ft 446 kts 196°
2026-05-04 18:05 44.89317 -7.92910 34750 ft 446 kts 200°
2026-05-04 18:05 44.83508 -7.95964 34747 ft 446 kts 200°
2026-05-04 18:06 44.74766 -8.00449 34749 ft 446 kts 200°
2026-05-04 18:06 44.68972 -8.03378 34747 ft 446 kts 200°
2026-05-04 18:07 44.63133 -8.06318 34748 ft 446 kts 200°
2026-05-04 18:07 44.57292 -8.09253 34746 ft 446 kts 200°
2026-05-04 18:08 44.51453 -8.12183 34747 ft 446 kts 200°
2026-05-04 18:08 44.45655 -8.15086 34747 ft 446 kts 199°
2026-05-04 18:09 44.33976 -8.20916 34747 ft 446 kts 199°
2026-05-04 18:10 44.28132 -8.23824 34748 ft 446 kts 199°
2026-05-04 18:10 44.22334 -8.26703 34749 ft 446 kts 199°
2026-05-04 18:11 44.16490 -8.29599 34747 ft 445 kts 199°
2026-05-04 18:11 44.10649 -8.32487 34749 ft 445 kts 199°
2026-05-04 18:12 44.05793 -8.34884 34747 ft 445 kts 199°
2026-05-04 18:12 43.99008 -8.38225 34746 ft 445 kts 199°
2026-05-04 18:13 43.93164 -8.41097 34747 ft 445 kts 199°
2026-05-04 18:14 43.85391 -8.44907 34749 ft 445 kts 199°
2026-05-04 18:14 43.78598 -8.48228 34747 ft 445 kts 199°
2026-05-04 18:15 43.67899 -8.53442 34746 ft 445 kts 199°
2026-05-04 18:16 43.62056 -8.56282 34747 ft 445 kts 199°
2026-05-04 18:16 43.55264 -8.59575 34747 ft 445 kts 199°
2026-05-04 18:17 43.47449 -8.63355 34748 ft 445 kts 199°
2026-05-04 18:18 43.38717 -8.67565 34746 ft 445 kts 199°
2026-05-04 18:18 43.32872 -8.70377 34746 ft 445 kts 199°
2026-05-04 18:19 43.24101 -8.74585 34745 ft 445 kts 199°
2026-05-04 18:19 43.18291 -8.77365 34748 ft 445 kts 199°
2026-05-04 18:20 43.12437 -8.80161 34744 ft 446 kts 199°
2026-05-04 18:20 43.06581 -8.82952 34751 ft 446 kts 199°
2026-05-04 18:21 43.00711 -8.85744 34750 ft 447 kts 199°
2026-05-04 18:21 42.94876 -8.88514 34750 ft 447 kts 199°
2026-05-04 18:22 42.88995 -8.91300 34747 ft 448 kts 199°
2026-05-04 18:22 42.83110 -8.94083 34750 ft 448 kts 199°
2026-05-04 18:23 42.77222 -8.96860 34749 ft 448 kts 199°
2026-05-04 18:23 42.71336 -8.99632 34746 ft 447 kts 199°
2026-05-04 18:24 42.65495 -9.02377 34747 ft 447 kts 199°
2026-05-04 18:24 42.59620 -9.05132 34748 ft 446 kts 199°
2026-05-04 18:25 42.53755 -9.07878 34747 ft 446 kts 199°
2026-05-04 18:25 42.47897 -9.10614 34746 ft 445 kts 199°
2026-05-04 18:26 42.42086 -9.13324 34747 ft 444 kts 199°
2026-05-04 18:26 42.36242 -9.16043 34746 ft 444 kts 199°
2026-05-04 18:27 42.30405 -9.18754 34747 ft 443 kts 199°
2026-05-04 18:27 42.24574 -9.21456 34749 ft 443 kts 199°
2026-05-04 18:28 42.18780 -9.24136 34746 ft 443 kts 199°
2026-05-04 18:28 42.12949 -9.26828 34750 ft 443 kts 199°
2026-05-04 18:29 42.07114 -9.29518 34748 ft 443 kts 199°
2026-05-04 18:29 42.01280 -9.32201 34748 ft 443 kts 199°
2026-05-04 18:30 41.92554 -9.36205 34748 ft 444 kts 199°
2026-05-04 18:31 41.86643 -9.38624 34747 ft 444 kts 195°
2026-05-04 18:31 41.80686 -9.40821 34750 ft 444 kts 195°
2026-05-04 18:32 41.74721 -9.43029 34749 ft 445 kts 195°
2026-05-04 18:32 41.68804 -9.45256 34747 ft 445 kts 195°
2026-05-04 18:33 41.62844 -9.47515 34747 ft 445 kts 196°
2026-05-04 18:33 41.56886 -9.49773 34746 ft 445 kts 196°
2026-05-04 18:34 41.50927 -9.52028 34747 ft 445 kts 196°
2026-05-04 18:34 41.45010 -9.54260 34746 ft 445 kts 195°
2026-05-04 18:35 41.39046 -9.56506 34748 ft 445 kts 195°
2026-05-04 18:35 41.33088 -9.58746 34748 ft 445 kts 195°
2026-05-04 18:36 41.27137 -9.60978 34746 ft 445 kts 195°
2026-05-04 18:36 41.21220 -9.63194 34748 ft 444 kts 195°
2026-05-04 18:37 41.15270 -9.65418 34747 ft 444 kts 195°
2026-05-04 18:37 41.09325 -9.67635 34747 ft 444 kts 195°
2026-05-04 18:38 41.03376 -9.69850 34746 ft 444 kts 195°
2026-05-04 18:38 40.97472 -9.72045 34746 ft 444 kts 195°
2026-05-04 18:39 40.91525 -9.74251 34747 ft 444 kts 195°
2026-05-04 18:39 40.85583 -9.76451 34748 ft 444 kts 195°
2026-05-04 18:40 40.79634 -9.78649 34747 ft 444 kts 195°
2026-05-04 18:40 40.73730 -9.80827 34750 ft 444 kts 195°
2026-05-04 18:41 40.67789 -9.83015 34748 ft 444 kts 195°
2026-05-04 18:41 40.61840 -9.85201 34747 ft 444 kts 195°
2026-05-04 18:42 40.55893 -9.87383 34750 ft 444 kts 195°
2026-05-04 18:42 40.49988 -9.89545 34749 ft 444 kts 195°
2026-05-04 18:43 40.44038 -9.91720 34747 ft 444 kts 195°
2026-05-04 18:43 40.38088 -9.93890 34748 ft 444 kts 195°
2026-05-04 18:44 40.32136 -9.96058 34747 ft 444 kts 195°
2026-05-04 18:44 40.26224 -9.98207 34748 ft 444 kts 195°
2026-05-04 18:45 40.20268 -10.00368 34747 ft 444 kts 195°
2026-05-04 18:45 40.14315 -10.02524 34748 ft 444 kts 195°
2026-05-04 18:46 40.08403 -10.04661 34748 ft 444 kts 195°
2026-05-04 18:46 40.02451 -10.06809 34747 ft 444 kts 195°
2026-05-04 18:47 39.96496 -10.08953 34748 ft 444 kts 195°
2026-05-04 18:47 39.90541 -10.11095 34746 ft 444 kts 195°
2026-05-04 18:48 39.84630 -10.13216 34748 ft 444 kts 195°
2026-05-04 18:48 39.78676 -10.15349 34748 ft 444 kts 195°
2026-05-04 18:49 39.72723 -10.17478 34748 ft 444 kts 195°
2026-05-04 18:49 39.66775 -10.19602 34747 ft 444 kts 195°
2026-05-04 18:50 39.60865 -10.21708 34747 ft 443 kts 195°
2026-05-04 18:50 39.54913 -10.23825 34748 ft 443 kts 195°
2026-05-04 18:51 39.48959 -10.25939 34747 ft 443 kts 195°
2026-05-04 18:51 39.43011 -10.28047 34749 ft 443 kts 195°
2026-05-04 18:52 39.37101 -10.30138 34747 ft 443 kts 195°
2026-05-04 18:52 39.31150 -10.32240 34747 ft 443 kts 195°
2026-05-04 18:53 39.25197 -10.34339 34748 ft 443 kts 195°
2026-05-04 18:53 39.19249 -10.36432 34748 ft 443 kts 195°
2026-05-04 18:54 39.13339 -10.38509 34748 ft 443 kts 195°
2026-05-04 18:54 39.07385 -10.40597 34748 ft 443 kts 195°
2026-05-04 18:55 39.01432 -10.42681 34748 ft 443 kts 195°
2026-05-04 18:55 38.92506 -10.45799 34748 ft 443 kts 195°
2026-05-04 18:56 38.86595 -10.47860 34748 ft 443 kts 195°
2026-05-04 18:56 38.80642 -10.49932 34747 ft 443 kts 195°
2026-05-04 18:57 38.74687 -10.52000 34747 ft 443 kts 195°
2026-05-04 18:57 38.68734 -10.54065 34748 ft 443 kts 195°
2026-05-04 18:58 38.62820 -10.56112 34747 ft 443 kts 195°
2026-05-04 18:58 38.56865 -10.58170 34748 ft 443 kts 195°
2026-05-04 18:59 38.50913 -10.60224 34750 ft 443 kts 195°
2026-05-04 18:59 38.44955 -10.62276 34747 ft 443 kts 195°
2026-05-04 19:00 38.39044 -10.64308 34747 ft 443 kts 195°
2026-05-04 19:00 38.33089 -10.66352 34750 ft 443 kts 195°
2026-05-04 19:01 38.27133 -10.68393 34747 ft 443 kts 195°
2026-05-04 19:01 38.21178 -10.70430 34749 ft 443 kts 195°
2026-05-04 19:02 38.15266 -10.72449 34747 ft 443 kts 195°
2026-05-04 19:02 38.09313 -10.74479 34748 ft 443 kts 195°
2026-05-04 19:03 38.03360 -10.76505 34747 ft 443 kts 195°
2026-05-04 19:03 37.97405 -10.78528 34748 ft 443 kts 195°
2026-05-04 19:04 37.91450 -10.80548 34749 ft 443 kts 195°
2026-05-04 19:04 37.85540 -10.82550 34746 ft 443 kts 195°
2026-05-04 19:05 37.79587 -10.84562 34748 ft 443 kts 195°
2026-05-04 19:05 37.73632 -10.86572 34748 ft 443 kts 195°
2026-05-04 19:06 37.67679 -10.88578 34749 ft 443 kts 195°
2026-05-04 19:06 37.61764 -10.90568 34747 ft 443 kts 195°
2026-05-04 19:07 37.55812 -10.92567 34748 ft 443 kts 195°
2026-05-04 19:07 37.49855 -10.94564 34747 ft 443 kts 195°
2026-05-04 19:08 37.43905 -10.96556 34746 ft 443 kts 195°
2026-05-04 19:08 37.37988 -10.98533 34747 ft 443 kts 195°
2026-05-04 19:09 37.32034 -11.00520 34747 ft 443 kts 195°
2026-05-04 19:09 37.26082 -11.02503 34748 ft 443 kts 195°
2026-05-04 19:10 37.20168 -11.04469 34747 ft 443 kts 195°
2026-05-04 19:10 37.14216 -11.06445 34747 ft 443 kts 195°
2026-05-04 19:11 37.08259 -11.08420 34748 ft 443 kts 195°
2026-05-04 19:11 37.02305 -11.10390 34747 ft 443 kts 195°
2026-05-04 19:12 36.93416 -11.13326 34747 ft 443 kts 195°
2026-05-04 19:13 36.87458 -11.15290 34747 ft 442 kts 195°
2026-05-04 19:13 36.81508 -11.17248 34747 ft 442 kts 195°
2026-05-04 19:14 36.75554 -11.19204 34750 ft 442 kts 194°
2026-05-04 19:14 36.69641 -11.21143 34748 ft 442 kts 194°
2026-05-04 19:15 36.63686 -11.23094 34748 ft 442 kts 194°
2026-05-04 19:15 36.57733 -11.25040 34747 ft 442 kts 194°
2026-05-04 19:16 36.51777 -11.26985 34747 ft 442 kts 194°
2026-05-04 19:16 36.45864 -11.28912 34750 ft 442 kts 194°
2026-05-04 19:17 36.39909 -11.30850 34748 ft 442 kts 194°
2026-05-04 19:17 36.33957 -11.32784 34747 ft 442 kts 194°
2026-05-04 19:18 36.28005 -11.34714 34748 ft 442 kts 194°
2026-05-04 19:18 36.22091 -11.36630 34749 ft 442 kts 194°
2026-05-04 19:19 36.16138 -11.38555 34747 ft 442 kts 194°
2026-05-04 19:19 36.10183 -11.40478 34747 ft 442 kts 194°
2026-05-04 19:20 36.04230 -11.42398 34747 ft 442 kts 194°
2026-05-04 19:20 35.98319 -11.44302 34748 ft 442 kts 195°
2026-05-04 19:21 35.92644 -11.47173 34755 ft 441 kts 207°
2026-05-04 19:21 35.87187 -11.50653 34747 ft 442 kts 207°
2026-05-04 19:22 35.81727 -11.54130 34746 ft 442 kts 207°
2026-05-04 19:22 35.76285 -11.57549 34747 ft 442 kts 207°
2026-05-04 19:23 35.70801 -11.60965 34750 ft 442 kts 207°
2026-05-04 19:23 35.65311 -11.64374 34747 ft 442 kts 207°
2026-05-04 19:24 35.59818 -11.67779 34748 ft 442 kts 207°
2026-05-04 19:24 35.54365 -11.71155 34747 ft 442 kts 207°
2026-05-04 19:25 35.48870 -11.74552 34747 ft 442 kts 207°
2026-05-04 19:25 35.43375 -11.77944 34747 ft 442 kts 207°
2026-05-04 19:26 35.37882 -11.81329 34751 ft 442 kts 206°
2026-05-04 19:26 35.32384 -11.84712 34747 ft 442 kts 206°
2026-05-04 19:27 35.26921 -11.88069 34748 ft 442 kts 206°
2026-05-04 19:27 35.21425 -11.91441 34747 ft 442 kts 206°
2026-05-04 19:28 35.15931 -11.94807 34747 ft 442 kts 206°
2026-05-04 19:28 35.10468 -11.98148 34747 ft 442 kts 206°
2026-05-04 19:29 35.04972 -12.01505 34750 ft 442 kts 206°
2026-05-04 19:29 34.99478 -12.04855 34747 ft 442 kts 206°
2026-05-04 19:30 34.93981 -12.08202 34747 ft 442 kts 206°
2026-05-04 19:30 34.88486 -12.11543 34747 ft 441 kts 206°
2026-05-04 19:31 34.83022 -12.14860 34747 ft 441 kts 206°
2026-05-04 19:31 34.77526 -12.18191 34747 ft 441 kts 206°
2026-05-04 19:32 34.72027 -12.21519 34748 ft 441 kts 206°
2026-05-04 19:32 34.66528 -12.24843 34749 ft 441 kts 206°
2026-05-04 19:33 34.61029 -12.28161 34747 ft 441 kts 206°
2026-05-04 19:33 34.55566 -12.31453 34748 ft 441 kts 206°
2026-05-04 19:34 34.50064 -12.34763 34747 ft 441 kts 206°
2026-05-04 19:34 34.44563 -12.38068 34747 ft 441 kts 206°
2026-05-04 19:35 34.39058 -12.41370 34748 ft 441 kts 206°
2026-05-04 19:35 34.33589 -12.44646 34747 ft 441 kts 206°
2026-05-04 19:36 34.28083 -12.47939 34748 ft 441 kts 206°
2026-05-04 19:36 34.22582 -12.51224 34748 ft 441 kts 206°
2026-05-04 19:37 34.17073 -12.54510 34747 ft 441 kts 206°
2026-05-04 19:37 34.11601 -12.57768 34747 ft 441 kts 206°
2026-05-04 19:38 34.06093 -12.61043 34747 ft 441 kts 206°
2026-05-04 19:38 34.00591 -12.64311 34747 ft 441 kts 206°
2026-05-04 19:39 33.95078 -12.67579 34748 ft 441 kts 206°
2026-05-04 19:39 33.89572 -12.70839 34749 ft 441 kts 206°
2026-05-04 19:40 33.84104 -12.74072 34747 ft 441 kts 206°
2026-05-04 19:40 33.78594 -12.77324 34747 ft 441 kts 206°
2026-05-04 19:41 33.73086 -12.80571 34747 ft 441 kts 206°
2026-05-04 19:41 33.67580 -12.83812 34747 ft 441 kts 206°
2026-05-04 19:42 33.62105 -12.87030 34748 ft 441 kts 206°
2026-05-04 19:42 33.56595 -12.90265 34747 ft 441 kts 206°
2026-05-04 19:43 33.51086 -12.93494 34747 ft 441 kts 206°
2026-05-04 19:43 33.45574 -12.96720 34747 ft 441 kts 206°
2026-05-04 19:44 33.40107 -12.99915 34747 ft 441 kts 206°
2026-05-04 19:44 33.34592 -13.03133 34747 ft 441 kts 206°
2026-05-04 19:45 33.29080 -13.06346 34747 ft 441 kts 206°
2026-05-04 19:45 33.23569 -13.09553 34747 ft 441 kts 206°
2026-05-04 19:46 33.18094 -13.12735 34747 ft 441 kts 206°
2026-05-04 19:46 33.12579 -13.15935 34747 ft 441 kts 206°
2026-05-04 19:47 33.07066 -13.19130 34747 ft 441 kts 206°
2026-05-04 19:47 33.01552 -13.22322 34747 ft 440 kts 206°
2026-05-04 19:48 32.96037 -13.25509 34747 ft 440 kts 206°
2026-05-04 19:48 32.90563 -13.28668 34749 ft 440 kts 206°
2026-05-04 19:49 32.85048 -13.31847 34749 ft 440 kts 206°
2026-05-04 19:49 32.79529 -13.35023 34748 ft 440 kts 206°
2026-05-04 19:50 32.74016 -13.38191 34747 ft 440 kts 206°
2026-05-04 19:50 32.68539 -13.41335 34747 ft 440 kts 206°
2026-05-04 19:51 32.63021 -13.44497 34750 ft 440 kts 206°
2026-05-04 19:51 32.57507 -13.47653 34748 ft 440 kts 206°
2026-05-04 19:52 32.51988 -13.50807 34748 ft 440 kts 206°
2026-05-04 19:52 32.46472 -13.53956 34748 ft 440 kts 206°
2026-05-04 19:53 32.40992 -13.57080 34750 ft 440 kts 206°
2026-05-04 19:53 32.35476 -13.60220 34747 ft 440 kts 206°
2026-05-04 19:54 32.29957 -13.63357 34747 ft 440 kts 206°
2026-05-04 19:54 32.24440 -13.66488 34747 ft 440 kts 206°
2026-05-04 19:55 32.18954 -13.69598 34748 ft 440 kts 205°
2026-05-04 19:55 32.13440 -13.72720 34748 ft 440 kts 205°
2026-05-04 19:56 32.07920 -13.75841 34749 ft 440 kts 205°
2026-05-04 19:56 32.02436 -13.78938 34748 ft 440 kts 205°
2026-05-04 19:57 31.96916 -13.82051 34748 ft 440 kts 205°
2026-05-04 19:57 31.91398 -13.85158 34749 ft 440 kts 205°
2026-05-04 19:58 31.85879 -13.88262 34749 ft 440 kts 205°
2026-05-04 19:58 31.80358 -13.91363 34747 ft 440 kts 205°
2026-05-04 19:59 31.74834 -13.94461 34748 ft 440 kts 205°
2026-05-04 19:59 31.69353 -13.97531 34747 ft 440 kts 205°
2026-05-04 20:00 31.63828 -14.00622 34747 ft 440 kts 205°
2026-05-04 20:00 31.58308 -14.03706 34747 ft 440 kts 205°
2026-05-04 20:01 31.52820 -14.06767 34748 ft 439 kts 205°
2026-05-04 20:01 31.47300 -14.09843 34747 ft 439 kts 205°
2026-05-04 20:02 31.41778 -14.12916 34747 ft 439 kts 205°
2026-05-04 20:02 31.36252 -14.15987 34747 ft 439 kts 205°
2026-05-04 20:03 31.30766 -14.19032 34750 ft 439 kts 205°
2026-05-04 20:03 31.25243 -14.22093 34748 ft 439 kts 205°
2026-05-04 20:04 31.19718 -14.25152 34747 ft 439 kts 205°
2026-05-04 20:04 31.14196 -14.28205 34747 ft 439 kts 205°
2026-05-04 20:05 31.08674 -14.31255 34748 ft 439 kts 205°
2026-05-04 20:05 31.03186 -14.34281 34747 ft 439 kts 205°
2026-05-04 20:06 30.97660 -14.37325 34747 ft 439 kts 205°
2026-05-04 20:06 30.92136 -14.40365 34749 ft 439 kts 205°
2026-05-04 20:07 30.86507 -14.43112 34749 ft 439 kts 198°
2026-05-04 20:07 30.80708 -14.45185 34749 ft 439 kts 196°
2026-05-04 20:08 30.74852 -14.47204 34747 ft 439 kts 197°
2026-05-04 20:08 30.69014 -14.49292 34747 ft 439 kts 197°
2026-05-04 20:09 30.63188 -14.51422 34747 ft 439 kts 197°
2026-05-04 20:09 30.57405 -14.53549 34746 ft 439 kts 198°
2026-05-04 20:10 30.51582 -14.55689 34747 ft 439 kts 197°
2026-05-04 20:10 30.45766 -14.57822 34750 ft 439 kts 197°
2026-05-04 20:11 30.39942 -14.59954 34747 ft 439 kts 197°
2026-05-04 20:11 30.34121 -14.62083 34747 ft 439 kts 197°
2026-05-04 20:12 30.28332 -14.64197 34747 ft 439 kts 197°
2026-05-04 20:12 30.22508 -14.66321 34748 ft 439 kts 197°
2026-05-04 20:13 30.16681 -14.68425 34748 ft 439 kts 195°
2026-05-04 20:13 30.10657 -14.69435 34748 ft 438 kts 186°
2026-05-04 20:14 30.04631 -14.70146 34748 ft 438 kts 186°
2026-05-04 20:14 29.98571 -14.70895 34747 ft 438 kts 186°
2026-05-04 20:15 29.92503 -14.71680 34749 ft 438 kts 186°
2026-05-04 20:15 29.86442 -14.72478 34749 ft 438 kts 186°
2026-05-04 20:16 29.80423 -14.73271 34747 ft 439 kts 186°
2026-05-04 20:16 29.74356 -14.74069 34747 ft 439 kts 186°
2026-05-04 20:17 29.68294 -14.74865 34747 ft 439 kts 186°
2026-05-04 20:17 29.62232 -14.75660 34748 ft 439 kts 186°
2026-05-04 20:18 29.56219 -14.76447 34736 ft 432 kts 186°
2026-05-04 20:18 29.53261 -14.76833 34528 ft 425 kts 186°
2026-05-04 20:18 29.50349 -14.77214 34277 ft 417 kts 186°
2026-05-04 20:18 29.47474 -14.77589 33886 ft 414 kts 186°
2026-05-04 20:19 29.44621 -14.77962 33534 ft 411 kts 186°
2026-05-04 20:19 29.41793 -14.78331 33171 ft 408 kts 186°
2026-05-04 20:19 29.38983 -14.78697 32813 ft 405 kts 186°
2026-05-04 20:19 29.36193 -14.79061 32457 ft 402 kts 186°
2026-05-04 20:20 29.33427 -14.79421 32108 ft 399 kts 186°
2026-05-04 20:20 29.30712 -14.79775 31759 ft 396 kts 186°
2026-05-04 20:20 29.27978 -14.80130 31414 ft 394 kts 186°
2026-05-04 20:20 29.25264 -14.80483 31077 ft 391 kts 186°
2026-05-04 20:21 29.22573 -14.80833 30732 ft 388 kts 186°
2026-05-04 20:21 29.19896 -14.81181 30399 ft 386 kts 186°
2026-05-04 20:21 29.14598 -14.81869 29729 ft 381 kts 186°
2026-05-04 20:22 29.11977 -14.82209 29393 ft 378 kts 186°
2026-05-04 20:22 29.09406 -14.82542 29048 ft 375 kts 186°
2026-05-04 20:22 29.06822 -14.82877 28707 ft 373 kts 186°
2026-05-04 20:22 29.04256 -14.83209 28360 ft 370 kts 186°
2026-05-04 20:23 29.01704 -14.83540 28017 ft 368 kts 186°
2026-05-04 20:23 28.99167 -14.83868 27665 ft 366 kts 186°
2026-05-04 20:23 28.96647 -14.84194 27309 ft 364 kts 186°
2026-05-04 20:23 28.94141 -14.84518 26949 ft 362 kts 186°
2026-05-04 20:24 28.91643 -14.84840 26604 ft 360 kts 186°
2026-05-04 20:24 28.89160 -14.85161 26238 ft 358 kts 186°
2026-05-04 20:24 28.86719 -14.85476 25878 ft 357 kts 186°
2026-05-04 20:24 28.84255 -14.85794 25502 ft 356 kts 186°
2026-05-04 20:25 28.81798 -14.86111 25140 ft 355 kts 186°
2026-05-04 20:25 28.79349 -14.86426 24763 ft 354 kts 186°
2026-05-04 20:25 28.76906 -14.86741 24391 ft 353 kts 186°
2026-05-04 20:25 28.74470 -14.87055 24014 ft 352 kts 186°
2026-05-04 20:26 28.72046 -14.87367 23651 ft 350 kts 186°
2026-05-04 20:26 28.69626 -14.87678 23268 ft 349 kts 186°
2026-05-04 20:26 28.67217 -14.87988 22905 ft 348 kts 186°
2026-05-04 20:26 28.64844 -14.88293 22549 ft 347 kts 186°
2026-05-04 20:27 28.62450 -14.88600 22182 ft 346 kts 186°
2026-05-04 20:27 28.60062 -14.88907 21819 ft 345 kts 186°
2026-05-04 20:27 28.57687 -14.89212 21456 ft 343 kts 186°
2026-05-04 20:27 28.55316 -14.89516 21094 ft 342 kts 186°
2026-05-04 20:28 28.52956 -14.89819 20735 ft 341 kts 186°
2026-05-04 20:28 28.50602 -14.90120 20363 ft 340 kts 186°
2026-05-04 20:28 28.48259 -14.90421 20014 ft 338 kts 186°
2026-05-04 20:28 28.45925 -14.90720 19660 ft 337 kts 186°
2026-05-04 20:29 28.43629 -14.91014 19301 ft 336 kts 186°
2026-05-04 20:29 28.41311 -14.91310 18948 ft 334 kts 186°
2026-05-04 20:29 28.39003 -14.91605 18595 ft 333 kts 186°
2026-05-04 20:29 28.36707 -14.91899 18245 ft 332 kts 186°
2026-05-04 20:30 28.34418 -14.92191 17895 ft 330 kts 186°
2026-05-04 20:30 28.32137 -14.92483 17545 ft 329 kts 186°
2026-05-04 20:30 28.29864 -14.92773 17191 ft 328 kts 186°
2026-05-04 20:30 28.27604 -14.93061 16845 ft 327 kts 186°
2026-05-04 20:31 28.25349 -14.93349 16498 ft 325 kts 186°
2026-05-04 20:31 28.23105 -14.93635 16154 ft 324 kts 186°
2026-05-04 20:31 28.20901 -14.93916 15810 ft 322 kts 186°
2026-05-04 20:31 28.18678 -14.94199 15472 ft 321 kts 186°
2026-05-04 20:32 28.16463 -14.94481 15132 ft 320 kts 186°
2026-05-04 20:32 28.14257 -14.94762 14797 ft 318 kts 186°
2026-05-04 20:32 28.12064 -14.95041 14459 ft 317 kts 186°
2026-05-04 20:32 28.09878 -14.95319 14125 ft 315 kts 186°
2026-05-04 20:33 28.07704 -14.95596 13791 ft 314 kts 186°
2026-05-04 20:33 28.05542 -14.95871 13467 ft 312 kts 186°
2026-05-04 20:33 28.03391 -14.96144 13141 ft 310 kts 186°
2026-05-04 20:33 28.01279 -14.96412 12822 ft 309 kts 186°
2026-05-04 20:34 27.99149 -14.96683 12502 ft 307 kts 186°
2026-05-04 20:34 27.97032 -14.96951 12183 ft 305 kts 186°
2026-05-04 20:34 27.94927 -14.97218 11867 ft 304 kts 186°
2026-05-04 20:34 27.92833 -14.97484 11554 ft 302 kts 186°
2026-05-04 20:35 27.90750 -14.97748 11241 ft 300 kts 186°
2026-05-04 20:35 27.88681 -14.98010 10933 ft 299 kts 186°
2026-05-04 20:35 27.86622 -14.98271 10618 ft 297 kts 186°
2026-05-04 20:35 27.84599 -14.98527 10308 ft 296 kts 186°
2026-05-04 20:36 27.82559 -14.98785 9999 ft 294 kts 186°
2026-05-04 20:36 27.80529 -14.99042 9686 ft 293 kts 186°
2026-05-04 20:36 27.78508 -14.99298 9380 ft 292 kts 186°
2026-05-04 20:36 27.76517 -14.99550 9235 ft 284 kts 186°
2026-05-04 20:37 27.74577 -14.99795 9092 ft 277 kts 186°
2026-05-04 20:37 27.72689 -15.00033 8971 ft 270 kts 186°
2026-05-04 20:37 27.70871 -15.00398 8825 ft 263 kts 202°
2026-05-04 20:37 27.69436 -15.01558 8618 ft 258 kts 230°
2026-05-04 20:38 27.68496 -15.03266 8372 ft 256 kts 244°
2026-05-04 20:38 27.67725 -15.05075 8106 ft 256 kts 244°
2026-05-04 20:38 27.66959 -15.06882 7840 ft 255 kts 244°
2026-05-04 20:38 27.66186 -15.08682 7578 ft 255 kts 244°
2026-05-04 20:39 27.65409 -15.10475 7320 ft 254 kts 244°
2026-05-04 20:39 27.64631 -15.12259 7063 ft 253 kts 244°
2026-05-04 20:39 27.63886 -15.14052 6800 ft 252 kts 252°
2026-05-04 20:39 27.63800 -15.15966 6538 ft 250 kts 283°
2026-05-04 20:40 27.64350 -15.17810 6311 ft 248 kts 292°
2026-05-04 20:40 27.65005 -15.19608 6050 ft 248 kts 292°
2026-05-04 20:40 27.65658 -15.21403 5795 ft 247 kts 292°
2026-05-04 20:40 27.66301 -15.23201 5508 ft 248 kts 292°
2026-05-04 20:41 27.66939 -15.25005 5245 ft 247 kts 291°
2026-05-04 20:41 27.67574 -15.26805 4980 ft 247 kts 291°
2026-05-04 20:41 27.68207 -15.28607 4717 ft 247 kts 291°
2026-05-04 20:41 27.68838 -15.30406 4460 ft 246 kts 291°
2026-05-04 20:42 27.69466 -15.32202 4207 ft 246 kts 291°
2026-05-04 20:42 27.70078 -15.33951 4072 ft 240 kts 291°
2026-05-04 20:42 27.70682 -15.35678 3940 ft 234 kts 291°
2026-05-04 20:42 27.71276 -15.37378 3723 ft 231 kts 291°
2026-05-04 20:43 27.71854 -15.39035 3507 ft 223 kts 291°
2026-05-04 20:43 27.72414 -15.40640 3271 ft 216 kts 291°
2026-05-04 20:43 27.72965 -15.42187 3032 ft 209 kts 296°
2026-05-04 20:43 27.73930 -15.43338 2791 ft 201 kts 334°
2026-05-04 20:44 27.75179 -15.43969 2629 ft 195 kts 335°
2026-05-04 20:44 27.76370 -15.44599 2421 ft 189 kts 335°
2026-05-04 20:44 27.77557 -15.45178 2213 ft 183 kts 348°
2026-05-04 20:44 27.78769 -15.44990 2132 ft 178 kts 21°
2026-05-04 20:45 27.79939 -15.44482 2004 ft 182 kts 21°
2026-05-04 20:45 27.81124 -15.43990 1877 ft 181 kts 20°
2026-05-04 20:45 27.82288 -15.43499 1740 ft 177 kts 21°
2026-05-04 20:45 27.83428 -15.42996 1592 ft 175 kts 21°
2026-05-04 20:46 27.84512 -15.42515 1378 ft 161 kts 21°
2026-05-04 20:46 27.85516 -15.42064 1219 ft 154 kts 22°
2026-05-04 20:46 27.86502 -15.41585 1193 ft 156 kts 23°
2026-05-04 20:46 27.87520 -15.41129 1023 ft 158 kts 20°
2026-05-04 20:47 27.88543 -15.40691 843 ft 155 kts 20°
2026-05-04 20:47 27.89550 -15.40263 658 ft 155 kts 21°
2026-05-04 20:47 27.90555 -15.39821 431 ft 155 kts 22°
2026-05-04 20:47 27.91555 -15.39379 210 ft 153 kts 21°
2026-05-04 20:48 27.92537 -15.38943 73 ft 149 kts 21°
2026-05-04 20:48 27.93412 -15.38555 61 ft 115 kts 22°
2026-05-04 20:48 27.94016 -15.38294 52 ft 72 kts 21°
2026-05-04 20:48 27.94337 -15.38153 47 ft 29 kts 22°
2026-05-04 20:49 27.94433 -15.38119 44 ft 12 kts 355°
2026-05-04 20:49 27.94475 -15.38181 44 ft 10 kts 249°
2026-05-04 20:49 27.94436 -15.38241 46 ft 9 kts 231°
2026-05-04 20:49 27.94395 -15.38297 48 ft 9 kts 225°
2026-05-04 20:50 27.94343 -15.38335 52 ft 9 kts 203°
2026-05-04 20:50 27.94288 -15.38363 54 ft 9 kts 204°
2026-05-04 20:50 27.94233 -15.38388 60 ft 8 kts 201°
2026-05-04 20:50 27.94180 -15.38411 55 ft 8 kts 201°
2026-05-04 20:51 27.94129 -15.38433 59 ft 8 kts 201°
2026-05-04 20:51 27.94079 -15.38455 67 ft 8 kts 201°
2026-05-04 20:51 27.94030 -15.38478 72 ft 7 kts 203°
2026-05-04 20:51 27.93984 -15.38499 70 ft 7 kts 201°
2026-05-04 20:52 27.93938 -15.38519 65 ft 7 kts 201°
2026-05-04 20:52 27.93894 -15.38538 70 ft 7 kts 201°
2026-05-04 20:52 27.93844 -15.38560 73 ft 9 kts 201°
2026-05-04 20:52 27.93766 -15.38594 72 ft 14 kts 201°
2026-05-04 20:53 27.93675 -15.38634 71 ft 14 kts 202°
2026-05-04 20:53 27.93682 -15.38708 84 ft 10 kts 326°
2026-05-04 20:53 27.93743 -15.38747 83 ft 10 kts 304°
2026-05-04 20:53 27.93763 -15.38821 84 ft 9 kts 284°
2026-05-04 20:54 27.93772 -15.38850 85 ft 1 kts 288°
2026-05-04 20:54 27.93773 -15.38852 84 ft 0 kts 289°